Regional Weather Roundup
Issued by NWS Mt. Holly, NJ

Home | Current Version | Previous Version | Text Only | Print | Product List | Glossary On
Versions: 1 2 3 4 5 6 7 8 9 10 11 12 13 14 15 16 17 18 19 20 21 22 23 24 25 26 27 28 29 30 31 32 33 34 35 36 37 38 39 40 41 42 43 44 45 46 47 48 49 50
000
ASUS41 KPHI 270710
RWRPHI

REGIONAL WEATHER ROUNDUP
NATIONAL WEATHER SERVICE MOUNT HOLLY NJ
200 AM EST SAT DEC 27 2014

NOTE:  "FAIR" INDICATES FEW OR NO CLOUDS BELOW 12,000 FEET WITH NO
SIGNIFICANT WEATHER AND/OR OBSTRUCTIONS TO VISIBILITY.

 * = STATION DOES NOT REPORT PRECIPITATION (E.G. RAIN, SNOW, ETC.)
        OR FOG.

NJZ015>026-270800-
SOUTHERN NEW JERSEY

CITY           SKY/WX    TMP DP  RH WIND       PRES   REMARKS
POMONA         CLEAR     35  32  88 W3        30.24S
RIO GRANDE*    CLEAR     37  30  75 SW6       30.24R WCI  33
MILLVILLE      CLEAR     28  27  96 CALM      30.24R
WRIGHTSTOWN    CLEAR     31  29  91 SW3       30.20S
MOUNT HOLLY    CLEAR     36  31  82 CALM      30.23R
TRENTON        CLEAR     38  29  70 W5        30.21S WCI  34

$$
NJZ001>014-270800-
NORTHERN NEW JERSEY

CITY           SKY/WX    TMP DP  RH WIND       PRES   REMARKS
SUSSEX         CLEAR     27  25  92 CALM      30.20S
ANDOVER*       NOT AVBL
MORRISTOWN     CLEAR     30  28  93 CALM      30.21R
NEWARK         PTCLDY    36  29  75 SW6       30.22R WCI  31
TETERBORO      CLEAR     30  27  88 CALM      30.20S
CALDWELL       CLEAR     31  28  89 SW3       30.22R
SOMERVILLE     CLEAR     28  25  88 CALM      30.20F
ALLAIRE*       CLEAR     37  28  70 W6        30.21S WCI  33
TOMS RIVER*    CLEAR     30  28  93 CALM      30.22R

$$
PAZ043-044-047-054-055-060>062-066>071-270800-
EASTERN PENNSYLVANIA

CITY           SKY/WX    TMP DP  RH WIND       PRES   REMARKS
PHILADELPHIA   MOCLDY    36  31  82 W5        30.25R WCI  32
NORTH PHILA    CLEAR     37  29  72 W5        30.24S WCI  33
BLUE BELL      PTCLDY    32  32 100 CALM      30.23R
DOYLESTOWN     PTCLDY    34  30  85 SW3       30.22R
POTTSTOWN      PTCLDY    28  26  92 CALM      30.24S
LANCASTER      MOCLDY    29  25  85 CALM      30.24R
COATESVILLE    PTCLDY    32  32 100 W6        30.23S WCI  26
READING        MOCLDY    30  27  88 CALM      30.22S
ALLENTOWN      PTCLDY    30  26  85 CALM      30.22R FOG
MOUNT POCONO   CLEAR     33  26  75 NW7       30.16S WCI  27
HAZLETON       CLOUDY    32  28  86 CALM      30.19F
WILKES BARRE   PTCLDY    34  28  79 SW8       30.21R WCI  27

$$
DEZALL-MDZ008-012-015-019-020-270800-
DELAWARE AND EASTERN MARYLAND

CITY           SKY/WX    TMP DP  RH WIND       PRES   REMARKS
WILMINGTON     PTCLDY    33  30  88 W3        30.25S
DOVER          CLEAR     35  32  88 SW7       30.23R WCI  30
GEORGETOWN     CLEAR     36  33  89 SW7       30.26R WCI  30
EASTON         CLEAR     37  37 100 CALM      30.30R
PATUXENT       CLEAR     34  31  88 CALM      30.27R
OCEAN CITY     CLEAR     37  35  92 SW5       30.26F WCI  33
WALLOPS ISLAND CLEAR     36  35  96 SW8       30.28S WCI  30
CAMBRIDGE      CLEAR     34  32  93 SE3       30.25S
SALISBURY      CLEAR     32  27  81 SW3       30.27R

$$
PAZ001-021-NYZ056-072-MDZ011-DCZ001-270800-
OTHER NEARBY LOCATIONS

CITY           SKY/WX    TMP DP  RH WIND       PRES   REMARKS
HARRISBURG     MOCLDY    30  28  92 CALM      30.24R
STATE COLLEGE  PTCLDY    36  29  76 W5        30.21R WCI  32
WILLIAMSPORT   CLOUDY    30  27  88 NW5       30.23R WCI  25
BINGHAMTON     PTCLDY    35  27  72 SW6       30.15R WCI  30
NEW YORK CITY  CLEAR     44  29  55 W3        30.22S
BALTIMORE      PTCLDY    32  29  88 CALM      30.24S
WASHINGTON DC  MOCLDY    37  32  82 CALM      30.26S

$$



USA.gov is the U.S. government's official web portal to all federal, state and local government web resources and services.